{"data":{"norad_id":59552,"intl_designator":"2024-074U","name":"STARLINK-31750","alt_names":[],"object_type":"PAYLOAD","status":"ACTIVE","operator":null,"country":"US","launch_date":"2024-04-18","launch_site_code":"AFETR","launch_vehicle":null,"mission":null,"orbit_class":"UNKNOWN","rcs_meters":null,"size_class":null,"mass_kg":null,"dimensions":null,"purposes":["comms"],"wikipedia_slug":null,"has_3d_model":false,"image_url":null,"decayed_at":null,"tle_current":{"epoch":"2026-05-25T01:24:29.925216Z","epoch_age_seconds":63138,"freshness":"FRESH","line1":"1 59552U 24074U   26145.05867969  .00000554  00000+0  29672-4 0  9994","line2":"2 59552  43.0028 272.2576 0001089 280.0939  79.9790 15.27571427117691","mean_motion":15.27571427,"eccentricity":0.0001089,"inclination_deg":43.0028,"raan_deg":272.2576,"arg_perigee_deg":280.0939,"mean_anomaly_deg":79.979,"bstar":2.9672e-5,"rev_number":11769,"period_min":94.267277755255,"perigee_km":482.32758084443,"apogee_km":483.82195276724,"semimajor_km":6861.2117668058,"source":"CELESTRAK","updated_at":"2026-05-25T13:38:18.982947Z"}}}